Simultaneous Nadir Overpasses (SNOs) Predictions

Prediction of SNOs between GOES-15 and TERRA Satellite Orbit:

Table of predicted SNOs for the next 14.0 days since TLE Epoch: 1/20/2012
Index Date Time (GOES-15) GOES-15 Lat,Lon TERRA Lat,Lon Distance(km) Time Diff (sec)
1 01/21/2012 07:12:12 0.02,-134.57 0.90,-130.44 470.06 80
2 01/21/2012 19:33:27 -0.01,-134.53 0.21,-135.59 120.45 80
3 01/23/2012 19:18:34 -0.02,-134.48 -0.42,-132.62 211.47 80
4 01/24/2012 07:39:58 0.01,-134.50 -0.67,-137.82 376.90 80
5 01/26/2012 07:27:44 0.00,-134.45 -0.09,-134.84 44.87 80
6 01/28/2012 07:18:11 -0.00,-134.40 0.55,-131.88 286.79 80
7 01/28/2012 19:39:26 0.00,-134.36 0.55,-137.03 303.62 80
8 01/30/2012 19:24:32 -0.01,-134.30 -0.04,-134.06 26.98 80
9 02/01/2012 19:12:19
